Weather History for PAGY - October, 2012

Change the Weather History Date:

Tuesday, October 30, 2012

  Actual Average Record
Temperature  
Mean Temperature 26 °F -  
Max Temperature 28 °F 40 °F 51 °F (1993)
Min Temperature 23 °F 32 °F 13 °F (1984)
Degree Days  
Heating Degree Days 40    
Moisture  
Dew Point 23 °F    
Average Humidity 85    
Maximum Humidity 93    
Minimum Humidity 57    
Precipitation  
Precipitation 0.27 in - - ()
Sea Level Pressure  
Sea Level Pressure 29.87 in    
Wind  
Wind Speed 0 mph (NE)    
Max Wind Speed 4 mph    
Max Gust Speed -    
Visibility 3 miles    
Events Fog , Snow    
Averages and records for this station are not official NWS values.
T = Trace of Precipitation, MM = Missing Value Source: NWS Daily Summary

Daily Weather History Graph

Daily Weather History Graph

Search for Another Location

Airport or City:

Trip Planner

Search our weather history database for the weather conditions in past years. The results will help you decide how hot, cold, wet, or windy it might be!

Date:

Astronomy

Oct. 30, 2012 Rise Set
Actual Time 8:17 AM AKDT 5:10 PM AKDT
Civil Twilight 7:33 AM AKDT 5:54 PM AKDT
Nautical Twilight 6:45 AM AKDT 6:43 PM AKDT
Astronomical Twilight 5:57 AM AKDT 7:30 PM AKDT
Moon 5:20 PM AKDT (10/30) 9:34 AM AKDT (10/30)
Length of Visible Light 10h 20m
Length of Day
8h 52m
Full, 99% of the Moon is Illuminated
Oct 30
Full
Nov 6
Last Quarter
Nov 13
New
Nov 20
First Quarter
Nov 28
Full

Hourly Weather History & Observations

Time (AKDT) Temp. Windchill Dew Point Humidity Pressure Visibility Wind Dir Wind Speed Gust Speed Precip Events Conditions
12:53 AM 23.0 °F - 10.0 °F 58% 29.98 in 10.0 mi Calm Calm - N/A   Mostly Cloudy
1:53 AM 24.1 °F - 10.9 °F 57% 29.98 in 10.0 mi Calm Calm - N/A   Mostly Cloudy
3:53 AM 24.1 °F - 10.9 °F 57% 29.99 in 10.0 mi Calm Calm - N/A   Overcast
4:53 AM 25.0 °F 20.7 °F 12.9 °F 60% 29.98 in 10.0 mi NNE 3.5 mph - N/A   Overcast
5:53 AM 25.0 °F - 12.0 °F 58% 29.97 in 10.0 mi Calm Calm - N/A   Overcast
6:53 AM 26.1 °F - 12.9 °F 58% 29.98 in 10.0 mi Calm Calm - N/A   Overcast
7:53 AM 26.1 °F - 15.1 °F 63% 29.97 in 10.0 mi Calm Calm - N/A   Overcast
8:07 AM 26.6 °F - 15.8 °F 64% 29.97 in 8.0 mi Calm Calm - 0.00 in Snow Light Snow
8:53 AM 26.1 °F - 18.0 °F 71% 29.97 in 4.0 mi Calm Calm - 0.00 in Snow Light Snow
9:01 AM 26.6 °F - 19.4 °F 74% 29.96 in 7.0 mi Calm Calm - 0.00 in Snow Light Snow
9:53 AM 27.0 °F - 19.9 °F 75% 29.96 in 8.0 mi Calm Calm - 0.00 in Snow Light Snow
10:06 AM 26.6 °F 22.6 °F 21.2 °F 80% 29.95 in 1.8 mi NE 3.5 mph - 0.00 in Snow Light Snow
10:53 AM 27.0 °F - 21.9 °F 81% 29.95 in 1.8 mi Calm Calm - 0.00 in Snow Light Snow
11:00 AM 26.6 °F - 23.0 °F 86% 29.95 in 2.0 mi Calm Calm - 0.00 in Snow Light Snow
11:42 AM 26.6 °F - 23.0 °F 86% 29.94 in 1.2 mi Calm Calm - 0.00 in Snow Light Snow
11:53 AM 27.0 °F - 23.0 °F 85% 29.94 in 0.5 mi Calm Calm - 0.00 in Fog , Snow Snow
12:31 PM 26.6 °F - 24.8 °F 93% 29.93 in 0.5 mi Calm Calm - 0.02 in Fog , Snow Snow
12:53 PM 28.0 °F - 25.0 °F 88% 29.93 in 1.0 mi Calm Calm - 0.02 in Snow Light Snow
1:14 PM 28.4 °F - 24.8 °F 86% 29.92 in 0.8 mi Calm Calm - 0.01 in Snow Light Snow
1:32 PM 28.4 °F - 24.8 °F 86% 29.91 in 0.5 mi Calm Calm - 0.02 in Fog , Snow Snow
1:53 PM 28.0 °F - 25.0 °F 88% 29.91 in 0.8 mi Calm Calm - 0.03 in Snow Light Snow
2:06 PM 28.4 °F - 24.8 °F 86% 29.90 in 1.0 mi Calm Calm - 0.00 in Snow Light Snow
2:27 PM 28.4 °F - 26.6 °F 93% 29.90 in 0.8 mi Calm Calm - 0.01 in Snow Light Snow
2:48 PM 28.4 °F - 26.6 °F 93% 29.89 in 1.0 mi Calm Calm - 0.02 in Snow Light Snow
2:53 PM 28.0 °F - 26.1 °F 92% 29.89 in 0.8 mi Calm Calm - 0.02 in Snow Light Snow
3:53 PM 28.0 °F - 25.0 °F 88% 29.87 in 0.8 mi Calm Calm - 0.01 in Snow Light Snow
4:06 PM 28.4 °F - 26.6 °F 93% 29.86 in 1.0 mi Calm Calm - 0.01 in Snow Light Snow
4:18 PM 28.4 °F - 24.8 °F 86% 29.85 in 0.5 mi Calm Calm - 0.01 in Fog , Snow Snow
4:53 PM 28.0 °F - 26.1 °F 92% 29.85 in 0.8 mi Calm Calm - 0.03 in Snow Light Snow
5:05 PM 28.4 °F - 24.8 °F 86% 29.83 in 1.2 mi Calm Calm - 0.00 in Snow Light Snow
5:13 PM 28.4 °F - 26.6 °F 93% 29.84 in 1.8 mi Calm Calm - 0.01 in Snow Light Snow
5:21 PM 28.4 °F - 26.6 °F 93% 29.84 in 2.5 mi Calm Calm - 0.01 in Snow Light Snow
5:28 PM 28.4 °F - 26.6 °F 93% 29.83 in 3.0 mi Calm Calm - 0.01 in Snow Light Snow
5:36 PM 28.4 °F - 26.6 °F 93% 29.83 in 2.5 mi Calm Calm - 0.01 in Snow Light Snow
5:53 PM 28.0 °F - 26.1 °F 92% 29.83 in 2.0 mi Calm Calm - 0.01 in Snow Light Snow
6:03 PM 28.4 °F - 26.6 °F 93% 29.83 in 1.2 mi Calm Calm - 0.01 in Snow Light Snow
6:16 PM 28.4 °F - 26.6 °F 93% 29.82 in 1.8 mi Calm Calm - 0.01 in Snow Light Snow
6:23 PM 28.4 °F - 26.6 °F 93% 29.81 in 2.0 mi Calm Calm - 0.02 in Snow Light Snow
6:53 PM 28.0 °F - 26.1 °F 92% 29.81 in 1.5 mi Calm Calm - 0.02 in Snow Light Snow
7:04 PM 28.4 °F - 26.6 °F 93% 29.81 in 3.0 mi Calm Calm - 0.01 in Snow Light Snow
7:18 PM 28.4 °F - 26.6 °F 93% 29.81 in 2.5 mi Calm Calm - 0.01 in Snow Light Snow
7:28 PM 28.4 °F - 26.6 °F 93% 29.81 in 1.2 mi Calm Calm - 0.01 in Snow Light Snow
7:53 PM 28.0 °F - 26.1 °F 92% 29.79 in 1.8 mi Calm Calm - 0.02 in Snow Light Snow
8:16 PM 28.4 °F - 26.6 °F 93% 29.79 in 2.0 mi Calm Calm - 0.01 in Snow Light Snow
8:23 PM 28.4 °F - 26.6 °F 93% 29.79 in 1.2 mi Calm Calm - 0.01 in Snow Light Snow
8:53 PM 28.0 °F - 26.1 °F 92% 29.78 in 1.2 mi Calm Calm - 0.03 in Snow Light Snow
9:00 PM 28.4 °F - 26.6 °F 93% 29.77 in 1.8 mi Calm Calm - 0.00 in Snow Light Snow
9:11 PM 28.4 °F - 26.6 °F 93% 29.78 in 2.5 mi Calm Calm - 0.01 in Snow Light Snow
9:35 PM 28.4 °F - 26.6 °F 93% 29.78 in 1.5 mi Calm Calm - 0.01 in Snow Light Snow
9:44 PM 28.4 °F - 26.6 °F 93% 29.77 in 1.2 mi Calm Calm - 0.02 in Snow Light Snow
9:53 PM 28.0 °F - 26.1 °F 92% 29.77 in 1.5 mi Calm Calm - 0.02 in Snow Light Snow
10:12 PM 28.4 °F - 26.6 °F 93% 29.76 in 1.2 mi Calm Calm - 0.01 in Snow Light Snow
10:53 PM 28.0 °F - 26.1 °F 92% 29.75 in 1.2 mi Calm Calm - 0.03 in Snow Light Snow
11:50 PM 28.4 °F - 26.6 °F 93% 29.74 in 0.8 mi Calm Calm - 0.03 in Snow Light Snow
11:53 PM 28.0 °F - 26.1 °F 92% 29.74 in 0.8 mi Calm Calm - 0.03 in Snow Light Snow